Location: Napoli
(40.8330°N, 14.2500°E)
Time: 09:40:12
(UTC+01:00)

ISS - Visible Passes

Search period start: 22 February 2024 00:00
Search period end: 03 March 2024 00:00
Orbit: 415 x 417 km, 51.6° (Epoch: 21 February)

Date Brightness Start Highest point End Pass type
(mag) Time Alt. Az. Time Alt. Az. Time Alt. Az.
22 Feb -2.4 05:19:18 26° NNW 05:19:19 26° NNW 05:22:15 10° NE visible
23 Feb -1.2 04:32:41 18° NNE 04:32:41 18° NNE 04:33:46 10° NE visible
23 Feb -1.5 06:06:05 10° NW 06:08:02 14° N 06:10:00 10° NNE visible
24 Feb -1.7 05:18:52 17° NNW 05:19:09 17° NNW 05:21:26 10° NNE visible
25 Feb -1.0 04:32:05 14° NNE 04:32:05 14° NNE 04:32:54 10° NNE visible
25 Feb -1.3 06:06:17 10° NNW 06:07:57 13° N 06:09:37 10° NNE visible
26 Feb -1.4 05:18:07 13° NNW 05:18:57 13° N 05:20:43 10° NNE visible
27 Feb -0.9 04:31:14 12° NNE 04:31:14 12° NNE 04:31:56 10° NNE visible
27 Feb -1.3 06:05:43 10° NNW 06:07:43 15° N 06:09:43 10° NE visible
28 Feb -1.2 05:17:11 11° NNW 05:18:40 13° N 05:20:24 10° NE visible
29 Feb -0.9 04:30:14 12° NNE 04:30:14 12° NNE 04:31:14 10° NNE visible
29 Feb -1.6 06:04:37 10° NNW 06:07:15 21° NNE 06:09:53 10° ENE visible
01 Mar -1.3 05:16:09 11° NNW 05:18:12 17° NNE 05:20:28 10° ENE visible
02 Mar -1.1 04:29:11 14° NNE 04:29:11 14° NNE 04:31:00 10° NE visible
02 Mar -2.5 06:03:20 10° NW 06:06:29 37° NNE 06:09:39 10° E visible
